Location: Feydey
(46.3431°N, 7.0106°E)
Time: 14:05:52
(UTC+00:00)

ATLAS CENTAUR R/B - Pass Details

Date: 20 June 2021
Orbit: 472 x 671 km, 64.6° (Epoch: 13 June)

Event Time Altitude Azimuth Distance (km) Brightness Sun altitude
Rises 20:07:16 0° 327° (NNW) 2,773 6.9 -6.1°
Reaches altitude 10° 20:09:31 10° 334° (NNW) 1,906 5.5 -6.3°
Maximum altitude 20:13:41 45° 47° (NE) 832 2.2 -6.9°
Drops below altitude 10° 20:18:03 10° 121° (ESE) 2,010 3.6 -7.4°
Enters shadow 20:18:22 - 122° (ESE) 2,127 3.7 -7.4°
